Regional Weather Roundup
Issued by NWS

Home | Current Version | Previous Version | Graphics & Text | Print | Product List | Glossary On
Versions: 1 2 3 4 5 6 7 8 9 10 11 12 13 14 15 16 17 18 19 20 21 22 23 24 25 26 27 28 29 30 31 32 33 34 35 36 37 38 39 40 41 42 43 44 45
000
ASUS45 KSLC 270310
RWRUT

UTAH REGIONAL WEATHER ROUNDUP
NATIONAL WEATHER SERVICE SALT LAKE CITY UT
800 PM MST FRI DEC 26 2014

UTZ001>011-023>025-270400-

NORTHERN UTAH

CITY           SKY/WX    TMP DP  RH WIND       PRES   REMARKS
BRIGHAM CITY   CLEAR     18  13  80 CALM      30.19R
HILL AFB       PTCLDY    19  10  69 W1        30.16R
LOGAN          CLEAR     12   8  84 NW5       30.18R WCI   4
OGDEN          PTCLDY    19  13  77 S3        30.16R
PROVO AIRPORT  NOT AVBL
SALT LAKE CITY MOCLDY    25  17  72 SW3       30.17R
VERNAL         CLOUDY    23  11  60 E6        30.07R WCI  16
WENDOVER       CLOUDY    30  12  47 N16       30.21R WCI  19
HEBER CITY     PTCLDY    12   9  85 CALM      30.10R THUNDER
WEST JORDAN    CLOUDY    25  19  80 NW3       30.17R

$$

UTZ012>022-026-027-270400-

SOUTHERN/CENTRAL UTAH

CITY           SKY/WX    TMP DP  RH WIND       PRES   REMARKS
BLANDING       PTCLDY    23  16  74 E10       30.06R WCI  12
BRYCE CANYON   CLEAR      6   2  83 N9        30.02R WCI  -8
CEDAR CITY     PTCLDY     8   4  83 N3        30.11R
DELTA          CLOUDY    20  17  87 SW3       30.18R
MILFORD        CLOUDY    22  15  75 NW8       30.15R WCI  12
MOAB/CYNLANDS  CLOUDY    15  12  88 SW5       30.05R WCI   8
PRICE          PTCLDY    21   6  52 N15       30.03R WCI   8
ST GEORGE      PTCLDY    37  10  32 NE20G29   30.17R WCI  27
KANAB          CLEAR     28   9  43 NW20G28   30.12R WCI  15

$$

REGIONAL REPORTS     COLORADO/ARIZONA

CITY           SKY/WX    TMP DP  RH WIND       PRES   REMARKS
CRAIG, CO      LGT SNOW  14  10  84 SW8       30.02R FOG     WCI   3
GRAND JUNCTION CLOUDY    21  16  81 NE5       30.05R WCI  15
RIFLE          CLOUDY    20   9  62 NW8       30.03R WCI  10
MONTROSE       CLOUDY    23  17  78 NW3       30.03R
CORTEZ         CLOUDY    24  15  68 CALM      30.01R
PAGE, AZ       CLOUDY    34   8  33 W8        30.05R WCI  27
GRAND CANYON   CLEAR     13  10  88 CALM      30.03R
KINGMAN        CLEAR     31  12  45 E8        30.11R WCI  23
FLAGSTAFF      PTCLDY    19   8  62 CALM      29.99R

$$

REGIONAL REPORTS    NEVADA/IDAHO/WYOMING

CITY           SKY/WX    TMP DP  RH WIND       PRES   REMARKS
LAS VEGAS, NV  PTCLDY    46   9  22 VRB6      30.14R
ELY            CLOUDY    19  13  77 N5        30.15R WCI  12
ELKO           CLOUDY    26  17  68 CALM      30.21R
POCATELLO, ID  CLOUDY    19  13  77 S9        30.19R WCI   8
BURLEY         CLOUDY    26  21  81 SW7       30.19R WCI  18
EVANSTON, WY   CLOUDY     7   3  84 SW6       30.03R WCI  -3
ROCK SPRINGS   LGT SNOW  11   8  88 E3        30.02R FOG

$$


USA.gov is the U.S. government's official web portal to all federal, state and local government web resources and services.